Voltar ao catálogo

SL-12 DEB

LostHEO
NORAD 45034·DEBRIS·🇷🇺 Russia

Lançado Dec 14, 2009 de Baikonur Cosmodrome

Loading…

Próximas Passagens (próximas 24 horas)

TLE

ObsoletoSource: Space-Track

Época: Feb 19, 2020, 01:14 UTC

1 45034U 09070M   20050.05146549  .00072452  00000-0  43782-1 0  9998
2 45034  64.8374  17.4457 5813857  26.5050 354.0867  4.24692842  1738

Acompanhe SL-12 DEB em tempo real com AllMySat

Download on the App Store